PEGASUS DEB, 24082

Orbit data source: Space-Track

PEGASUS DEB, 24082 is space debris in LEO originally from a launch on Thu, 19 May 1994 UTC launched from the Air Force Western Test Range (AFWTR). Debris objects in space refer to the collection of defunct objects orbiting the Earth. Examples of debris include non-operational satellites, rocket bodies, and fragments generated from explosions, collisions, or faulty payload assembly.

Loading next visibility...
Identifier
24082, 1994-029ED
Orbit
LEO
Country
Flag of USUS
Related business
Manufacturer
Unknown
Mission
Spacecraft
Bus & Motor
Unknown
Mass
Unknown
Launch date (UTC)
1994-05-19 (32 years ago)
Launch vehicle
Unknown
Launch site
Air Force Western Test Range (AFWTR)
Object type
Payload
Rocket body
Debris
Shape & HBR
Unknown shape, 0.1 m
Radar Cross Section
Medium (>0.1 m² and <1 m²)

Expand to show TLE details & history
Last TLE update: 17 hours ago

TLE from 17 hours ago
0 PEGASUS DEB
1 24082U 94029ED  26206.32989417  .00010989  00000-0  52029-3 0  9997
2 24082  81.9117 296.3795 0042022  75.3192 285.2693 15.18414084626132
Epoch: 2026-07-25T07:55Z
TLE epoch observation values (Epoch: 2026-07-25T07:55:02.856Z)
Latitude
0.00002°
Longitude
-125.42613°
Altitude
506.189 km
Speed
7.615 km/s
True Right ascension
19h 45m 31s
True Declination
0° 00' 00"
Sunlit
Object was in full shadow at epoch
Visualization orbit readout
Latitude
Unknown
Longitude
Unknown
Altitude
Unknown
Speed
Unknown
Apparent Right ascension
Unknown
Apparent Declination
Unknown
Sunlit
N/A
Visualization observer readout
Local Sidereal Time
14:22:12
Azimuth
Unknown
Elevation
Unknown
Doppler factor
Unknown
Orbital elements
Apogee altitude
536.567 km
Perigee altitude
478.696 km
Semi-major axis
6,885.768 km
Eccentricity
0.0042
Inclination
81.9117°
RAAN
296.3795°
Arg. of periapsis
75.3192°
True anomaly
284.80412°
Mean anomaly
285.2693°
Eccentric anomaly
285.03678°
Mean motion
3.79852 °/min
Orbital period
94.77 mins
BSTAR
0.00052029
Loading maneuver chart data...
Computing Atmospheric mass density...

Documentation

Showing up to 5 results
|